sat.trackr.live / text

‹ back to catalog

KONDOR-FKA NO. 1

NORAD 56756 · 2023-074A

PAYLOAD ACTIVE UNKNOWN

§ Identity

Operator
Country
CIS
Launch date
2023-05-26
Launch site
VOSTO
Launch vehicle
Mass (kg)
RCS (m²)

External: N2YO · Heavens-Above · Gunter

§ Orbital elements

Epoch: 2026-09-21T22:39:49.138272Z

Period
94.75 min
Inclination
97.4383°
Eccentricity
0.0001760
Mean motion
15.19720001 rev/d
Perigee alt
505.5 km
Apogee alt
507.9 km
Semi-major
6,884.8 km
B*
1.1139e-4
RAAN
98.1229°
Arg perigee
87.8856°
Mean anomaly
272.2580°
Rev number
18,438

§ Raw data

KONDOR-FKA NO. 11 56756U 23074A   26264.94431873  .00002311  00000+0  11139-3 0  99982 56756  97.4383  98.1229 0001760  87.8856 272.2580 15.19720001184388

JSON: /api/v1/satellites/56756 · /tle

For live sub-satellite position, see the globe view (requires WebGL).

§ Visibility from observer

Set your observer location to see the next 7 days of passes ≥ 10°. The values pass through the URL so the page stays shareable.

No JS? Fill the form by hand. The geolocation button needs JavaScript.